Arcata, CA

10:00 AM PDT on September 28, 2016 (GMT -0700)
Arcata

Weather History for KACV - February, 2014

Change the Weather History Date:

Tuesday, February 18, 2014

  Actual Average Record
Temperature  
Mean Temperature 54 °F -  
Max Temperature 61 °F 54 °F 61 °F (2014)
Min Temperature 46 °F 39 °F 28 °F (2006)
Degree Days  
Heating Degree Days 10    
Growing Degree Days 4 (Base 50)    
Moisture  
Dew Point 48 °F    
Average Humidity 86    
Maximum Humidity 93    
Minimum Humidity 60    
Precipitation  
Precipitation 0.39 in - - ()
Sea Level Pressure  
Sea Level Pressure 30.13 in    
Wind  
Wind Speed 7 mph (South)    
Max Wind Speed 20 mph    
Max Gust Speed 31 mph    
Visibility 7 miles    
Events Rain    
Averages and records for this station are not official NWS values.
T = Trace of Precipitation, MM = Missing Value Source: NWS Daily Summary

Daily Weather History Graph

Daily Weather History Graph

Search for Another Location

Airport or City:

Trip Planner

Search our weather history database for the weather conditions in past years. The results will help you decide how hot, cold, wet, or windy it might be!

Date:

Astronomy

Feb. 18, 2014 Rise Set
Actual Time 7:06 AM PST 5:54 PM PST
Civil Twilight 6:38 AM PST 6:22 PM PST
Nautical Twilight 6:06 AM PST 6:54 PM PST
Astronomical Twilight 5:34 AM PST 7:26 PM PST
Moon 9:56 PM PST (2/18) 8:39 AM PST (2/18)
Length of Visible Light 11h 44m
Length of Day
10h 48m
Waning Gibbous, 86% of the Moon is Illuminated
Feb 18
Waning Gibbous
Feb 22
Last Quarter
Mar 1
New
Mar 8
First Quarter
Mar 16
Full

Hourly Weather History & Observations

Time (PST) Temp. Dew Point Humidity Pressure Visibility Wind Dir Wind Speed Gust Speed Precip Events Conditions
12:53 AM 52.0 °F 48.9 °F 89% 30.22 in 10.0 mi SE 3.5 mph - N/A   Overcast
1:53 AM 51.1 °F 48.0 °F 89% 30.21 in 10.0 mi Calm Calm - N/A   Overcast
2:53 AM 51.1 °F 48.9 °F 92% 30.22 in 8.0 mi ESE 4.6 mph - 0.01 in Rain Light Rain
3:03 AM 51.1 °F 48.9 °F 92% 30.19 in 10.0 mi East 5.8 mph - 0.00 in   Overcast
3:53 AM 50.0 °F 48.0 °F 93% 30.19 in 10.0 mi ESE 4.6 mph - 0.00 in   Partly Cloudy
4:53 AM 50.0 °F 48.0 °F 93% 30.19 in 10.0 mi Calm Calm - N/A   Partly Cloudy
5:53 AM 50.0 °F 46.9 °F 89% 30.19 in 10.0 mi Calm Calm - N/A   Partly Cloudy
6:53 AM 50.0 °F 46.9 °F 89% 30.19 in 10.0 mi SE 4.6 mph - N/A   Clear
7:53 AM 50.0 °F 46.9 °F 89% 30.19 in 10.0 mi SSE 4.6 mph - N/A   Clear
8:53 AM 52.0 °F 46.9 °F 83% 30.19 in 10.0 mi SE 6.9 mph - N/A   Clear
9:53 AM 55.9 °F 48.0 °F 75% 30.19 in 10.0 mi SE 4.6 mph - N/A   Clear
10:53 AM 57.0 °F 46.9 °F 69% 30.19 in 10.0 mi SSE 8.1 mph - N/A   Mostly Cloudy
11:53 AM 60.1 °F 48.9 °F 67% 30.18 in 10.0 mi SSE 8.1 mph - N/A   Mostly Cloudy
12:53 PM 61.0 °F 46.9 °F 60% 30.15 in 10.0 mi South 15.0 mph - N/A   Mostly Cloudy
1:53 PM 59.0 °F 48.0 °F 67% 30.13 in 6.0 mi SW 11.5 mph - N/A   Haze
2:53 PM 57.9 °F 48.0 °F 70% 30.11 in 10.0 mi SSW 9.2 mph - N/A   Overcast
3:53 PM 55.0 °F 48.9 °F 80% 30.10 in 6.0 mi SW 13.8 mph - N/A   Haze
4:53 PM 54.0 °F 50.0 °F 86% 30.10 in 6.0 mi SSW 12.7 mph 20.7 mph 0.01 in   Overcast
5:28 PM 54.0 °F 50.0 °F 86% 30.07 in 8.0 mi South 10.4 mph - N/A   Overcast
5:53 PM 54.0 °F 50.0 °F 86% 30.09 in 10.0 mi South 9.2 mph - 0.00 in   Overcast
6:53 PM 54.0 °F 51.1 °F 90% 30.06 in 10.0 mi South 10.4 mph - 0.02 in   Overcast
7:45 PM 54.0 °F 50.0 °F 86% 30.04 in 5.0 mi SSW 10.4 mph 18.4 mph 0.01 in Rain Light Rain
7:53 PM 53.1 °F 51.1 °F 93% 30.06 in 2.5 mi SSW 11.5 mph - 0.05 in Rain Rain
8:23 PM 53.1 °F 51.1 °F 93% 30.04 in 4.0 mi SSW 10.4 mph - 0.12 in Rain Rain
8:31 PM 53.1 °F 51.1 °F 93% 30.04 in 1.8 mi SW 8.1 mph - 0.18 in Rain Heavy Rain
8:37 PM 53.1 °F 51.1 °F 93% 30.05 in 2.5 mi SW 10.4 mph - 0.19 in Rain Rain
8:53 PM 50.0 °F 48.0 °F 93% 30.09 in 4.0 mi North 19.6 mph 27.6 mph 0.20 in Rain Light Rain
8:59 PM 50.0 °F 46.9 °F 89% 30.08 in 5.0 mi North 19.6 mph 31.1 mph 0.00 in Rain Light Rain
9:09 PM 48.9 °F 46.9 °F 93% 30.09 in 5.0 mi North 16.1 mph 24.2 mph 0.01 in Rain Light Rain
9:42 PM 48.9 °F 46.0 °F 90% 30.11 in 3.0 mi NNW 12.7 mph - 0.04 in Rain Rain
9:53 PM 48.0 °F 46.0 °F 93% 30.14 in 4.0 mi North 13.8 mph - 0.05 in Rain Rain
10:15 PM 48.0 °F 45.0 °F 89% 30.13 in 6.0 mi North 10.4 mph - 0.03 in Rain Light Rain
10:53 PM 48.0 °F 45.0 °F 89% 30.15 in 6.0 mi NE 6.9 mph - 0.05 in Rain Light Rain
11:53 PM 46.9 °F 44.1 °F 90% 30.18 in 10.0 mi Calm Calm - 0.00 in   Overcast